This is the latest recevied weather packets stored in our database for station/object K1WJY. If no packets are shown the sender has not sent any weather packets the latest 10 day(s).
| Time | Temp. | Humidity | Pressure | Rain* | Wind** | Luminosity | Snow |
|---|---|---|---|---|---|---|---|
| 1787401117 | 21.11° C | 63% | 1022.7 hPa | 0 mm | - | 164 W/m² | - |
| 1787400814 | 20.56° C | 65% | 1022.8 hPa | 0 mm | - | 269 W/m² | - |
| 1787400512 | 20.56° C | 65% | 1023 hPa | 0 mm | - | 151 W/m² | - |
| 1787400209 | 20° C | 67% | 1023.2 hPa | 0 mm | - | 141 W/m² | - |
| 1787399905 | 20° C | 73% | 1023.2 hPa | 0 mm | - | 148 W/m² | - |
| 1787399602 | 20° C | 72% | 1023.1 hPa | 0 mm | - | 116 W/m² | - |
| 1787399301 | 20° C | 72% | 1022.9 hPa | 0 mm | - | 116 W/m² | - |
| 1787399001 | 19.44° C | 74% | 1023.1 hPa | 0 mm | - | 120 W/m² | - |
| 1787398696 | 18.89° C | 78% | 1022.9 hPa | 0 mm | - | 116 W/m² | - |
| 1787398393 | 17.78° C | 79% | 1023.1 hPa | 0 mm | - | 109 W/m² | - |
| 1787398089 | 17.78° C | 79% | 1023.1 hPa | 0 mm | - | 88 W/m² | - |
| 1787397787 | 17.78° C | 80% | 1023 hPa | 0 mm | - | 84 W/m² | - |
| 1787397483 | 17.78° C | 80% | 1023.2 hPa | 0 mm | - | 46 W/m² | - |
| 1787397178 | 17.78° C | 79% | 1023.4 hPa | 0 mm | - | 31 W/m² | - |
| 1787396873 | 17.78° C | 80% | 1023.1 hPa | 0 mm | - | 41 W/m² | - |
| 1787396569 | 17.78° C | 81% | 1023 hPa | 0 mm | - | 48 W/m² | - |
| 1787396268 | 17.78° C | 82% | 1023.2 hPa | 0 mm | - | 45 W/m² | - |
| 1787395964 | 17.78° C | 81% | 1023.1 hPa | 0 mm | - | 57 W/m² | - |
| 1787395659 | 17.22° C | 82% | 1022.9 hPa | 0 mm | - | 49 W/m² | - |
| 1787395354 | 17.22° C | 83% | 1022.9 hPa | 0 mm | - | 42 W/m² | - |
| 1787395053 | 16.67° C | 84% | 1023 hPa | 0 mm | - | 42 W/m² | - |
| 1787394750 | 16.67° C | 83% | 1022.9 hPa | 0 mm | - | 36 W/m² | - |
| 1787394445 | 16.67° C | 83% | 1022.9 hPa | 0 mm | - | 25 W/m² | - |
| 1787394141 | 16.67° C | 83% | 1022.6 hPa | 0 mm | - | 17 W/m² | - |
| 1787393841 | 16.67° C | 83% | 1022.8 hPa | 0 mm | - | 14 W/m² | - |
* Rain latest hour (hover to see other rain measurements)
** Current wind speed in m/s (hover to see current wind gust speed)